www.pogodaiklimat.ru

Погода и климат >> Архив погоды >> Россия >> Ненецкий АО >> Несь


ПОГОДА в Неси

  • Прогноз погоды в Неси
  • Монитор погоды в Неси
  • Климат города

АРХИВ ПОГОДЫ в Неси

Время (UTC), дата Ветер
(напр.,м/с)
 
Видим.   Явления Облачность Т
(С)
Тd
(С)
f
(%)
Тe
(С)
Тes
(С)
Комфортность P
(гПа)
Po
(гПа)
Тmin
(С)
Tmax
(С)
R
(мм)
R24
(мм)
S
(см)
09 19.09 З 5 н/о н/о +10.1 -30.2 4 +8 1002.9 1001.3
12 19.09 З 6
{11}
н/о н/о +9.9 -30.5 4 +8 +8 1002.5 1001.1
15 19.09 З 5
{12}
н/о н/о +9.2 -31.0 4 +7 +7 1003.8 1002.3
18 19.09 З 3 н/о н/о +8.7 -31.4 4 +7 +7 1004.3 1002.8 +10.2
21 19.09 З 2 н/о н/о +8.6 -31.4 4 +8 +8 1004.6 1003.1
00 20.09 З 2 н/о н/о +8.2 -31.7 4 +8 +8 1005.0 1003.5
03 20.09 ЮЗ 2 н/о н/о +7.5 -32.3 4 +7 +7 1005.5 1004.1 +7.6
06 20.09 В 1 н/о н/о +8.3 -31.6 4 +9 +9 1006.6 1005.1 +6.8
09 20.09 СЗ 2 н/о н/о +10.4 -30.2 4 +10 +10 1006.9 1005.5
12 20.09 Ю 3 н/о н/о +12.8 -28.5 4 +12 +12 1006.4 1005.0
15 20.09 ЮВ 4 н/о н/о +8.2 -31.7 4 +6 +6 1005.7 1004.2
18 20.09 Ю 5 н/о н/о +9.4 -30.9 4 +7 +7 1004.1 1002.7 +13.2
21 20.09 Ю 7-11
{10}
н/о н/о +9.6 -30.7 4 +7 +7 1001.3 999.9
00 21.09 Ю 7-12
{12}
н/о н/о +10.3 -30.2 4 +8 +8 998.8 997.4
03 21.09 Ю 7-11
{12}
н/о н/о +11.2 -29.6 4 +9 +9 996.6 995.2 +5.6
06 21.09 ЮЗ 5
{13}
н/о н/о +11.1 -29.7 4 +9 +9 995.8 994.4 +9.3
09 21.09 З 8-15
{16}
н/о н/о +12.8 -28.5 4 +11 +11 997.6 996.1
12 21.09 З 8-16
{17}
н/о н/о +13.4 -28.0 4 +11 +11 999.7 998.3
15 21.09 З 7-13
{17}
н/о н/о +12.5 -28.7 4 +10 +10 1001.5 1000.0
18 21.09 ЮЗ 5
{14}
н/о н/о +11.4 -29.5 4 +10 +10 1002.9 1001.4 +13.8
21 21.09 ЮЗ 5 н/о н/о +9.9 -30.5 4 +8 +8 1003.4 1001.9
00 22.09 Ю 4 н/о н/о +7.9 -32.0 4 +6 +6 1003.7 1002.2
03 22.09 Ю 4 н/о н/о +8.1 -31.8 4 +6 +6 1003.8 1002.3 +7.7
06 22.09 Ю 4 н/о н/о +9.4 -30.9 4 +8 +8 1002.5 1001.0 +7.7
09 22.09 ЮЗ 7-11
{12}
н/о н/о +13.7 -27.8 4 +12 +12 1001.1 999.7
12 22.09 Ю 7
{12}
н/о н/о +16.7 -25.7 4 +16 +16 999.6 998.2
15 22.09 Ю 6
{11}
н/о н/о +17.8 -25.0 4 +17 +17 998.4 997.0
18 22.09 Ю 8 н/о н/о +17.5 -25.1 4 +16 998.8 997.3 +18.3
21 22.09 Ю 6
{14}
н/о н/о +16.3 -26.0 4 +15 +15 996.5 995.1
00 23.09 ЮЗ 5 н/о н/о +16.4 -25.8 4 +16 997.5 996.0
03 23.09 ЮЗ 2
{10}
н/о н/о +12.5 -28.7 4 +12 +12 997.8 996.4 +12.7
06 23.09 ЮЗ 2 н/о н/о +13.3 -28.1 4 +13 +13 998.4 996.9 +11.6
09 23.09 Ю 3 н/о н/о +15.9 -26.3 4 +16 +16 997.4 995.9
12 23.09 Ю 4 н/о н/о +12.4 -28.8 4 +11 +11 996.5 995.1
15 23.09 Ю 2 н/о н/о +10.6 -30.1 4 +10 +10 995.4 994.0
18 23.09 ЮЗ 2 н/о н/о +10.5 -30.1 4 +10 +10 994.1 992.7 +16.1
21 23.09 ЮЗ 3 н/о н/о +9.9 -30.6 4 +9 +9 994.8 993.4
00 24.09 ЮЗ 4 н/о н/о +8.7 -31.4 4 +7 +7 995.3 993.8
03 24.09 ЮЗ 6 н/о н/о +8.1 -31.8 4 +5 +5 996.7 995.2 +7.8
06 24.09 ЮЗ 6
{11}
н/о н/о +9.7 -30.7 4 +7 +7 997.6 996.2 +7.8
09 24.09 ЮЗ 7-11
{12}
н/о н/о +11.1 -29.7 4 +9 +9 998.7 997.3
12 24.09 Ю 6
{13}
н/о н/о +11.3 -29.5 4 +9 +9 999.9 998.5
15 24.09 Ю 4
{11}
н/о н/о +8.3 -31.7 4 +6 +6 1000.8 999.3
18 24.09 Ю 5 н/о н/о +6.0 -33.3 4 +3 +3 1000.9 999.5 +11.8
21 24.09 Ю 3 н/о н/о +4.5 -34.3 4 +2 +2 1001.7 1000.3
00 25.09 Ю 3 н/о н/о +3.7 -34.9 4 +1 +1 1001.9 1000.4
03 25.09 Ю 3 н/о н/о +5.9 -33.3 4 +4 +4 1002.4 1000.9 +3.5
06 25.09 ЮЗ 3 н/о н/о +8.4 -31.4 4 +7 1004.3 1002.7 +3.5
09 25.09 ЮЗ 3 н/о н/о +9.6 -30.7 4 +8 +8 1003.7 1002.3
12 25.09 З 1 н/о н/о +10.1 -30.2 4 +11 1004.3 1002.7
15 25.09 С 1 н/о н/о +7.0 -32.6 4 +7 +7 1003.8 1002.3
18 25.09 С 3 н/о н/о +4.6 -34.1 4 +3 1004.3 1002.7
21 25.09 С 2 н/о н/о +3.9 -34.6 4 +3 1002.9 1001.3
00 26.09 С 2 н/о н/о +1.5 -36.3 4 -0 1001.6 1000.0
03 26.09 С 2 н/о н/о +1.1 -36.6 4 -1 1000.3 998.7 +0.9
06 26.09 С 1 н/о н/о +4.6 -34.1 4 +5 1000.3 998.7 +0.2

 

Местоположение метеостанции Несь (Ненецкий АО, Россия): широта 66.60 долгота 44.68 высота над уровнем моря 13 м.

В архиве по умолчанию представлена погода в Неси за последнюю неделю. Архивные данные за месяц целиком и за предыдущие месяцы, начиная с января 2011 года, Вы можете получить, выбрав интересующий диапазон дат из раскрывающегося списка и нажав кнопку "Ввод!".


*Определитесь, кто Вы:
робот инопланетянин человек

Внимание! Время в таблицах - всемирное. Для получения местного времени необходимо прибавить поправку, которая в Неси равна 3 ч.

Смотрите также архив погоды в соседних городах и на ближайших метеорологических станциях:

Погода в Абрамовском маяке (Архангельская область, Россия) (68 км)
Погода в Мезене (Архангельская область, Россия) (84 км)
Погода на Моржовец Острове (Архангельская область, Россия) (98 км)
Погода в Мосеево (Архангельская область, Россия) (115 км)
Погода в Нижней Пеше (Ненецкий АО, Россия) (137 км)
Погода в Шойне (Ненецкий АО, Россия) (144 км)
Погода на Мысе Микулкин (Ненецкий АО, Россия) (158 км)
Погода на Сосновец Острове (Мурманская область, Россия) (178 км)
Погода в Кепино (Архангельская область, Россия) (187 км)
Погода в Лешуконском (Архангельская область, Россия) (196 км)

Пояснения к столбцам:

Ветер - указаны скорость ветра в м/с - средняя за 10 мин, порывы в срок и между сроками (в фигурных скобках) и направление, откуда дует ветер: С - северный, СВ - северо-восточный, В - восточный, ЮВ - юго-восточный, Ю - южный, ЮЗ - юго-западный, З - западный, СЗ - северо-западный.
Видимость - горизонтальная дальность видимости в метрах или километрах. При видимости от 1 до 10 км при отсутствии осадков обычно наблюдается дымка, при ухудшении видимости до 1 км и менее - туман. В сухую погоду видимость может ухудшаться дымом, пылью или мглою.
Явления - указаны атмосферные явления, наблюдавшиеся в срок или в последний час перед сроком; фигурными скобками обозначены явления, наблюдавшиеся между сроками (за 1-3 часа до срока); квадратными скобками обозначены град или гололедные отложения с указанием их диаметра в мм.
Облачность - указаны через наклонную черту общая и нижняя облачность в баллах и высота нижней границы облаков в метрах; квадратными скобками обозначены формы облаков: Ci - перистые, Cs - перисто-слоистые, Cc - перисто-кучевые, Ac - высококучевые, As - высокослоистые, Sc - слоисто-кучевые, Ns - слоисто-дождевые, Cu - кучевые, Cb - кучево-дождевые. Подробнее классификацию облаков см. в Атласе облаков (PDF).
T - Температура воздуха - температура, измеренная на высоте 2 м над землей.
Td - Температура точки росы - температура, при понижении до которой содержащийся в воздухе водяной пар достигнет насыщения.
f - Относительная влажность воздуха - влажноcть воздуха, измеренная на высоте 2 м над землей.
Te - Эффективная температура - температура, которую ощущает одетый по сезону человек в тени. Характеристика душности погоды. При расчете учитывается влияние влажности воздуха и скорости ветра на теплоощущения человека.
Tes - Эффективная температура на солнце - температура, которую ощущает человек, с поправкой на солнечный нагрев. Характеристика знойности погоды. Зависит от высоты солнца над горизонтом, облачности и скорости ветра. Ночью, в пасмурную погоду, а также при ветре 12 м/с и более поправка равна нулю.
P - Атмосферное давление - приведенное к уровню моря атмосферное давление.
Po - Атмосферное давление - измеренное на уровне метеостанции атмосферное давление.
Tmin - Минимальная температура - минимум температуры воздуха на высоте 2 м над землей.
Tmax - Максимальная температура - максимум температуры воздуха на высоте 2 м над землей.
R - Количество осадков - Количество выпавших осадков за период времени, мм. При наведении курсора мыши на число - период времени, за который выпало указанное количество осадков.
R24 - Количество осадков - Количество выпавших осадков за 24 часа, мм.
S - Снежный покров - Высота снежного покрова, см. При наведении курсора мыши на число - состояние снежного покрова и степень покрытия местности в баллах.